Weather History for Hickory, NC

Change the Weather History Date:

Saturday, May 31, 2014

  Actual Average Record
Temperature  
Mean Temperature 70 °F -  
Max Temperature 79 °F 80 °F 96 °F (2011)
Min Temperature 64 °F 59 °F 40 °F (1984)
Cooling Degree Days 6    
Growing Degree Days 20 (Base 50)    
Moisture  
Dew Point 63 °F    
Average Humidity 80    
Maximum Humidity 94    
Minimum Humidity 52    
Precipitation  
Precipitation 0.01 in - - ()
Sea Level Pressure  
Sea Level Pressure 30.13 in    
Wind  
Wind Speed 4 mph (ENE)    
Max Wind Speed 8 mph    
Max Gust Speed -    
Visibility 10 miles    
Events Rain    
Averages and records for this station are not official NWS values.
T = Trace of Precipitation, MM = Missing Value Source: NWS Daily Summary

Daily Weather History Graph

Daily Weather History Graph

Search for Another Location

Airport:

Trip Planner

Search our weather history database for the weather conditions in past years. The results will help you decide how hot, cold, wet, or windy it might be!

Date:

Astronomy

May. 31, 2014 Rise Set
Actual Time 6:11 AM EDT 8:35 PM EDT
Civil Twilight 5:41 AM EDT 9:05 PM EDT
Nautical Twilight 5:05 AM EDT 9:41 PM EDT
Astronomical Twilight 4:25 AM EDT 10:21 PM EDT
Moon 8:44 AM EDT (5/31) 10:56 PM EDT (5/31)
Length of Visible Light 15h 23m
Length of Day
14h 24m
Waxing Crescent, 8% of the Moon is Illuminated
May 31
Waxing Crescent
Jun 5
First Quarter
Jun 13
Full
Jun 19
Last Quarter
Jun 27
New

Hourly Weather History & Observations

Time (EDT) Temp. Dew Point Humidity Pressure Visibility Wind Dir Wind Speed Gust Speed Precip Events Conditions
12:26 AM 69.8 °F 66.2 °F 88% 30.13 in 10.0 mi East 4.6 mph - N/A   Scattered Clouds
12:53 AM 69.1 °F 66.0 °F 90% 30.07 in 10.0 mi ENE 4.6 mph - N/A   Overcast
1:09 AM 68.0 °F 66.2 °F 94% 30.13 in 10.0 mi NE 3.5 mph - N/A   Overcast
1:24 AM 69.8 °F 66.2 °F 88% 30.14 in 8.0 mi ENE 4.6 mph - N/A   Overcast
1:46 AM 69.8 °F 66.2 °F 88% 30.14 in 7.0 mi ENE 4.6 mph - N/A   Overcast
1:53 AM 69.1 °F 66.9 °F 93% 30.07 in 7.0 mi East 4.6 mph - N/A   Overcast
2:13 AM 69.8 °F 66.2 °F 88% 30.13 in 7.0 mi East 3.5 mph - N/A   Overcast
2:53 AM 69.1 °F 66.0 °F 90% 30.07 in 9.0 mi NE 6.9 mph - N/A   Overcast
3:53 AM 66.0 °F 64.0 °F 93% 30.08 in 10.0 mi ENE 8.1 mph - N/A   Overcast
5:53 AM 64.9 °F 62.1 °F 90% 30.10 in 9.0 mi ENE 5.8 mph - 0.01 in Rain Light Rain
6:14 AM 64.4 °F 62.6 °F 94% 30.16 in 10.0 mi East 5.8 mph - 0.00 in   Overcast
6:53 AM 64.9 °F 62.1 °F 90% 30.11 in 10.0 mi ENE 5.8 mph - 0.00 in   Overcast
7:12 AM 64.4 °F 62.6 °F 94% 30.17 in 10.0 mi NE 4.6 mph - N/A   Overcast
8:53 AM 64.9 °F 63.0 °F 93% 30.14 in 10.0 mi NE 3.5 mph - N/A   Overcast
9:53 AM 66.9 °F 63.0 °F 87% 30.14 in 10.0 mi ENE 4.6 mph - N/A   Overcast
10:13 AM 66.2 °F 62.6 °F 88% 30.19 in 10.0 mi East 4.6 mph - N/A   Overcast
10:46 AM 69.8 °F 62.6 °F 78% 30.19 in 10.0 mi NE 6.9 mph - N/A   Overcast
11:41 AM 69.8 °F 62.6 °F 78% 30.20 in 10.0 mi NE 4.6 mph - N/A   Overcast
11:53 AM 71.1 °F 63.0 °F 75% 30.15 in 10.0 mi NNE 4.6 mph - N/A   Overcast
12:53 PM 72.0 °F 61.0 °F 68% 30.13 in 10.0 mi Variable 3.5 mph - N/A   Overcast
1:53 PM 75.0 °F 60.1 °F 60% 30.12 in 10.0 mi NNE 3.5 mph - N/A   Mostly Cloudy
2:53 PM 75.9 °F 59.0 °F 56% 30.10 in 10.0 mi ENE 6.9 mph - N/A   Overcast
3:53 PM 77.0 °F 57.9 °F 52% 30.09 in 10.0 mi NE 5.8 mph - N/A   Mostly Cloudy
4:53 PM 77.0 °F 60.1 °F 56% 30.08 in 10.0 mi Variable 4.6 mph - N/A   Mostly Cloudy
5:53 PM 75.9 °F 57.0 °F 52% 30.09 in 10.0 mi Calm Calm - N/A   Mostly Cloudy
7:53 PM 75.0 °F 59.0 °F 57% 30.10 in 10.0 mi Calm Calm - N/A   Overcast
8:53 PM 70.0 °F 57.9 °F 65% 30.11 in 10.0 mi Calm Calm - N/A   Clear
9:53 PM 68.0 °F 60.1 °F 76% 30.13 in 10.0 mi Calm Calm - N/A   Clear
10:53 PM 64.9 °F 61.0 °F 87% 30.15 in 10.0 mi Calm Calm - N/A   Clear
11:53 PM 64.9 °F 62.1 °F 90% 30.17 in 8.0 mi Calm Calm - N/A   Scattered Clouds